Back to catalog

STARLINK-34768

AliveCommunicationsVLEO
NORAD 65095·PAYLOAD·🇺🇸 United States

Launched Aug 4, 2025 from Cape Canaveral Space Force Station

Loading…

Next Passes (next 24 hours)

TLE

FreshSource: CelesTrak SupGP

Epoch: Sep 14, 2026, 20:51 UTC

1 65095C 25167T   26257.86923611  .00041070  00000+0  12134-2 0  2575
2 65095  53.1581 220.3452 0001470  88.6922 173.3325 15.34370477    11

Track STARLINK-34768 in real time with AllMySat

Download on the App Store